Regional Weather Roundup
Issued by NWS

Home | Current Version | Previous Version | Graphics & Text | Print | Product List | Glossary On
Versions: 1 2 3 4 5 6 7 8 9 10 11 12 13 14 15 16 17 18 19 20 21 22 23 24 25 26 27 28 29 30 31 32 33 34 35 36 37 38 39 40 41 42 43 44 45 46 47 48 49 50
000
ASUS43 KLSX 231810
RWRMO

WEATHER SUMMARY FOR MISSOURI
NATIONAL WEATHER SERVICE SPRINGFIELD MO
100 PM CDT TUE AUG 23 2016

NOTE: "FAIR" INDICATES FEW OR NO CLOUDS BELOW 12,000 FEET WITH NO
       SIGNIFICANT WEATHER AND/OR OBSTRUCTIONS TO VISIBILITY.
       CURRENT SKY AND/OR WEATHER CONDITIONS ARE NOT AVAILABLE FOR
       CHILLICOTHE AND FARMINGTON.

MOZ001>031-035>038-043-044-053-054-231900-
...NORTHERN AND WESTERN MISSOURI...

CITY           SKY/WX    TMP DP  RH WIND       PRES   REMARKS
KANSAS CTY INT CLOUDY    83  71  67 S17       30.00F
6HR MIN TEMP:  69; 6HR MAX TEMP:  83;

KANSAS C DTWN  CLOUDY    86  72  62 S16G24    30.00F HX  92
6HR MIN TEMP:  71; 6HR MAX TEMP:  86;

LEE`S SUMMIT   CLOUDY    80  72  76 S16G24    30.04F
6HR MIN TEMP:  69; 6HR MAX TEMP:  82;

ST JOSEPH      CLOUDY    80  71  74 S18       29.97F
6HR MIN TEMP:  67; 6HR MAX TEMP:  81;

CHILLICOTHE      N/A     78  71  79 SE10G17   30.05F
6HR MIN TEMP:  65; 6HR MAX TEMP:  78;

KIRKSVILLE     CLOUDY    78  69  73 S15       30.09F
6HR MIN TEMP:  60; 6HR MAX TEMP:  80;


$$
MOZ066>068-077>081-088>096-101>105-231900-
...SOUTHWEST MISSOURI...

CITY           SKY/WX    TMP DP  RH WIND       PRES   REMARKS
SPRINGFIELD    CLOUDY    81  72  74 S12       30.14F
6HR MIN TEMP:  71; 6HR MAX TEMP:  81; 6HR PCP:  0.68;

JOPLIN         CLOUDY    80  74  81 S15       30.09F
6HR MIN TEMP:  73; 6HR MAX TEMP:  81; 6HR PCP: TRACE;

BRANSON        PTSUNNY   82  73  74 SW5       30.18S

$$
MOZ032>034-039>042-045>050-055>058-069>072-231900-
...CENTRAL MISSOURI...

CITY           SKY/WX    TMP DP  RH WIND       PRES   REMARKS
COLUMBIA       CLOUDY    74  70  87 SE9       30.12F
6HR MIN TEMP:  68; 6HR MAX TEMP:  76; 6HR PCP: TRACE;

JEFFERSON CITY CLOUDY    75  71  87 SE5       30.12F
6HR MIN TEMP:  68; 6HR MAX TEMP:  75; 6HR PCP: TRACE;

ROLLA          RAIN      71  70  96 S9        30.17F FOG
6HR MIN TEMP:  66; 6HR MAX TEMP:  75; 6HR PCP:  0.03;

SEDALIA        CLOUDY    75  71  87 S13       30.11F
6HR MIN TEMP:  67; 6HR MAX TEMP:  77; 6HR PCP: TRACE;

WHITEMAN AFB   DRIZZLE   75  75 100 S12       30.08R
OSAGE BEACH    CLOUDY    75  72  88 S7        30.13F

$$
MOZ051-052-059>065-231900-
...EAST CENTRAL MISSOURI...

CITY           SKY/WX    TMP DP  RH WIND       PRES   REMARKS
ST LOUIS INTL  CLOUDY    75  66  73 SE15      30.19S
6HR MIN TEMP:  70; 6HR MAX TEMP:  75; 6HR PCP:  0.03;

SPIRIT OF STL  CLOUDY    76  70  82 VRB3      30.16F
6HR MIN TEMP:  65; 6HR MAX TEMP:  76; 6HR PCP:  0.04;

ST CHARLES     CLOUDY    72  70  93 SE10      30.18F
6HR MIN TEMP:  67; 6HR MAX TEMP:  73; 6HR PCP:  0.15;


$$
MOZ072>076-082>087-097>100-106>115-231900-
...SOUTH CENTRAL AND SOUTHEAST MISSOURI...

CITY           SKY/WX    TMP DP  RH WIND       PRES   REMARKS
CAPE GIRARDEAU CLOUDY    79  67  66 SE10      30.21S
6HR MIN TEMP:  68; 6HR MAX TEMP:  79;

FARMINGTON     CLOUDY    74  70  87 S7        30.22S
6HR MIN TEMP:  64; 6HR MAX TEMP:  74; 6HR PCP:  0.04;

POPLAR BLUFF   LGT RAIN  77  72  84 S7        30.20S
6HR MIN TEMP:  69; 6HR MAX TEMP:  79;

WEST PLAINS    CLOUDY    76  72  87 E8        30.21F
6HR MIN TEMP:  69; 6HR MAX TEMP:  76; 6HR PCP:  0.22;


$$




USA.gov is the U.S. government's official web portal to all federal, state and local government web resources and services.